Location: Unspecified
(0.0000°N, 0.0000°E)
Time: 19:43:29
(UTC+00:00)

DMSP 5D-2 F13 DEB - Pass Details

Date: 22 February 2026
Orbit: 782 x 824 km, 98.9° (Epoch: 12 March)

Event Time Altitude Azimuth Distance (km) Brightness Sun altitude
Rises 20:06:35 0° 192° (SSW) 3,271 ? -27.8°
Reaches altitude 10° 20:09:21 10° 206° (SSW) 2,338 ? -28.5°
Maximum altitude 20:13:19 23° 257° (WSW) 1,620 ? -29.5°
Drops below altitude 10° 20:17:17 10° 308° (NW) 2,330 ? -30.4°
Sets 20:20:03 0° 322° (NW) 3,258 ? -31.1°
